N6291L KORL-

Flight info

Callsign N6291L
Flight time N/A
Altitude VFR
Route
Aircraft TBM8/L-DOV/C

Departure

Time 2026-04-25 14:42
Airport Orlando Executive Airport (KORL)

Arrival

Time N/A
Airport -
Time Latitude Longitude Altitude Speed Heading
2026-04-25 14:34 28.54856 -81.33577 112 ft 0 kts 33°
2026-04-25 14:36 28.54844 -81.33520 115 ft 7 kts 134°
2026-04-25 14:36 28.54823 -81.33505 112 ft 11 kts 181°
2026-04-25 14:37 28.54793 -81.33528 114 ft 0 kts 220°
2026-04-25 14:37 28.54773 -81.33548 112 ft 18 kts 221°
2026-04-25 14:37 28.54724 -81.33578 112 ft 9 kts 206°
2026-04-25 14:38 28.54695 -81.33501 112 ft 20 kts 84°
2026-04-25 14:38 28.54712 -81.33303 112 ft 28 kts 85°
2026-04-25 14:38 28.54755 -81.33085 112 ft 31 kts 67°
2026-04-25 14:38 28.54840 -81.32858 112 ft 25 kts 65°
2026-04-25 14:39 28.54903 -81.32688 112 ft 23 kts 67°
2026-04-25 14:39 28.54975 -81.32510 115 ft 26 kts 67°
2026-04-25 14:39 28.55044 -81.32320 119 ft 14 kts 73°
2026-04-25 14:39 28.55012 -81.32253 119 ft 3 kts 204°
2026-04-25 14:40 28.55010 -81.32254 120 ft 0 kts 181°
2026-04-25 14:40 28.54954 -81.32231 117 ft 12 kts 159°
2026-04-25 14:40 28.54901 -81.32298 119 ft 31 kts 246°
2026-04-25 14:41 28.54742 -81.32717 118 ft 82 kts 245°
2026-04-25 14:41 28.54467 -81.33387 310 ft 100 kts 240°
2026-04-25 14:41 28.54096 -81.34194 419 ft 135 kts 240°
2026-04-25 14:41 28.53623 -81.35288 463 ft 166 kts 242°
2026-04-25 14:42 28.53171 -81.36529 726 ft 176 kts 264°
2026-04-25 14:42 28.53198 -81.36983 813 ft 179 kts 280°
2026-04-25 14:42 28.53784 -81.39316 1250 ft 189 kts 285°
2026-04-25 14:42 28.54178 -81.40783 1409 ft 198 kts 285°
2026-04-25 14:43 28.54620 -81.42308 1473 ft 208 kts 290°
2026-04-25 14:43 28.55403 -81.43730 1535 ft 217 kts 307°
2026-04-25 14:43 28.56381 -81.45034 1695 ft 216 kts 309°
2026-04-25 14:43 28.57361 -81.46336 1841 ft 216 kts 308°
2026-04-25 14:44 28.58318 -81.47656 1960 ft 217 kts 308°
2026-04-25 14:44 28.59292 -81.48998 1996 ft 223 kts 308°
2026-04-25 14:44 28.60286 -81.50363 2014 ft 225 kts 308°
2026-04-25 14:44 28.61266 -81.51722 2317 ft 217 kts 308°
2026-04-25 14:45 28.62206 -81.53044 2627 ft 213 kts 307°
2026-04-25 14:45 28.63118 -81.54361 2907 ft 210 kts 307°
2026-04-25 14:45 28.64030 -81.55654 3161 ft 209 kts 309°
2026-04-25 14:45 28.64936 -81.56916 3428 ft 208 kts 307°
2026-04-25 14:46 28.65828 -81.58206 3711 ft 206 kts 307°
2026-04-25 14:46 28.66720 -81.59484 3958 ft 206 kts 307°
2026-04-25 14:46 28.67616 -81.60748 4207 ft 205 kts 308°
2026-04-25 14:46 28.68511 -81.62013 4460 ft 204 kts 308°
2026-04-25 14:47 28.69404 -81.63273 4707 ft 205 kts 308°
2026-04-25 14:47 28.69706 -81.63700 4796 ft 205 kts 308°
2026-04-25 14:47 28.71195 -81.65801 5206 ft 205 kts 308°
2026-04-25 14:47 28.72090 -81.67071 5464 ft 205 kts 308°
2026-04-25 14:48 28.72987 -81.68341 5728 ft 206 kts 308°
2026-04-25 14:48 28.73907 -81.69644 5777 ft 215 kts 308°
2026-04-25 14:48 28.74867 -81.70997 5803 ft 223 kts 308°
2026-04-25 14:48 28.75840 -81.72374 5800 ft 228 kts 308°
2026-04-25 14:49 28.76857 -81.73812 5824 ft 232 kts 308°
2026-04-25 14:49 28.77862 -81.75232 5890 ft 232 kts 308°
2026-04-25 14:49 28.78852 -81.76641 6152 ft 224 kts 308°
2026-04-25 14:49 28.79813 -81.78013 6420 ft 219 kts 308°
2026-04-25 14:50 28.80754 -81.79359 6669 ft 216 kts 308°
2026-04-25 14:50 28.81689 -81.80692 6925 ft 214 kts 308°
2026-04-25 14:50 28.82615 -81.82011 7176 ft 213 kts 308°
2026-04-25 14:50 28.83540 -81.83326 7439 ft 212 kts 308°
2026-04-25 14:51 28.84451 -81.84642 7685 ft 211 kts 308°
2026-04-25 14:51 28.85366 -81.85956 7934 ft 211 kts 308°
2026-04-25 14:51 28.86279 -81.87264 8191 ft 211 kts 308°
2026-04-25 14:51 28.87197 -81.88570 8444 ft 211 kts 308°
2026-04-25 14:52 28.88137 -81.89918 8281 ft 230 kts 308°
2026-04-25 14:52 28.89179 -81.91383 7787 ft 244 kts 309°
2026-04-25 14:52 28.90272 -81.92893 7300 ft 243 kts 310°
2026-04-25 14:52 28.90636 -81.93384 7127 ft 238 kts 310°
2026-04-25 14:53 28.92000 -81.95247 6466 ft 225 kts 309°
2026-04-25 14:53 28.92968 -81.96618 5964 ft 219 kts 308°
2026-04-25 14:53 28.93906 -81.97967 5466 ft 215 kts 308°
2026-04-25 14:53 28.94826 -81.99302 4966 ft 213 kts 308°
2026-04-25 14:54 28.95738 -82.00621 4466 ft 210 kts 307°
2026-04-25 14:54 28.96643 -82.01929 3969 ft 209 kts 307°
2026-04-25 14:54 28.97542 -82.03229 3486 ft 207 kts 307°
2026-04-25 14:54 28.98437 -82.04520 2974 ft 205 kts 307°
2026-04-25 14:55 28.99315 -82.05793 2501 ft 204 kts 308°
2026-04-25 14:55 29.00206 -82.07055 2007 ft 203 kts 307°
2026-04-25 14:55 29.01039 -82.08281 1526 ft 175 kts 308°
2026-04-25 14:55 29.01756 -82.09272 1048 ft 153 kts 309°
2026-04-25 14:56 29.02369 -82.10099 996 ft 125 kts 308°
2026-04-25 14:56 29.02871 -82.10829 995 ft 114 kts 304°
2026-04-25 14:56 29.03309 -82.11632 1013 ft 124 kts 291°
2026-04-25 14:56 29.03627 -82.12582 1014 ft 131 kts 287°
2026-04-25 14:57 29.03924 -82.13583 1017 ft 135 kts 286°
2026-04-25 14:57 29.04211 -82.14616 1026 ft 137 kts 285°
2026-04-25 14:57 29.04499 -82.15666 1020 ft 137 kts 288°
2026-04-25 14:57 29.05060 -82.16188 910 ft 98 kts 355°
2026-04-25 14:58 29.05735 -82.16225 930 ft 103 kts 21°
2026-04-25 14:58 29.06286 -82.15726 964 ft 100 kts 40°
2026-04-25 14:58 29.06833 -82.15223 997 ft 102 kts 45°
2026-04-25 14:58 29.07005 -82.14482 1046 ft 99 kts 96°
2026-04-25 14:59 29.07086 -82.13693 1069 ft 102 kts 83°
2026-04-25 14:59 29.07162 -82.12876 1026 ft 104 kts 103°
2026-04-25 14:59 29.06652 -82.12501 1023 ft 95 kts 198°
2026-04-25 14:59 29.06099 -82.12887 1041 ft 95 kts 234°
2026-04-25 15:00 29.05717 -82.13499 1022 ft 94 kts 232°
2026-04-25 15:00 29.05328 -82.14095 1007 ft 95 kts 232°
2026-04-25 15:00 29.05215 -82.14847 1052 ft 103 kts 270°
2026-04-25 15:00 29.05204 -82.15690 1031 ft 109 kts 264°
2026-04-25 15:01 29.05161 -82.16571 1016 ft 112 kts 264°
2026-04-25 15:01 29.05107 -82.17469 1009 ft 114 kts 264°
2026-04-25 15:01 29.05052 -82.18375 1003 ft 114 kts 263°
2026-04-25 15:01 29.04994 -82.19284 996 ft 115 kts 264°
2026-04-25 15:02 29.04936 -82.20196 995 ft 115 kts 263°
2026-04-25 15:02 29.04878 -82.21107 987 ft 115 kts 264°
2026-04-25 15:02 29.04818 -82.22017 978 ft 114 kts 264°
2026-04-25 15:02 29.04756 -82.22932 987 ft 118 kts 263°
2026-04-25 15:03 29.04690 -82.23881 983 ft 121 kts 263°
2026-04-25 15:03 29.04625 -82.24848 984 ft 123 kts 264°
2026-04-25 15:03 29.04560 -82.25829 991 ft 125 kts 265°
2026-04-25 15:03 29.04475 -82.26811 994 ft 126 kts 264°
2026-04-25 15:04 29.04383 -82.27814 998 ft 128 kts 264°
2026-04-25 15:04 29.04286 -82.28826 999 ft 128 kts 264°
2026-04-25 15:04 29.04188 -82.29842 1001 ft 129 kts 264°
2026-04-25 15:04 29.04305 -82.30824 994 ft 128 kts 311°
2026-04-25 15:05 29.05100 -82.31198 1006 ft 126 kts 349°
2026-04-25 15:05 29.05967 -82.31375 1006 ft 127 kts 350°
2026-04-25 15:05 29.06847 -82.31537 940 ft 132 kts 351°
2026-04-25 15:06 29.08778 -82.31567 614 ft 142 kts 12°
2026-04-25 15:06 29.09725 -82.31261 554 ft 142 kts 18°
2026-04-25 15:06 29.10668 -82.30897 526 ft 144 kts 19°
2026-04-25 15:06 29.11631 -82.30575 512 ft 144 kts
2026-04-25 15:07 29.12623 -82.30447 503 ft 140 kts
2026-04-25 15:07 29.13544 -82.30348 493 ft 128 kts
2026-04-25 15:07 29.14411 -82.30270 489 ft 121 kts
2026-04-25 15:07 29.15221 -82.30226 486 ft 112 kts 360°
2026-04-25 15:08 29.15983 -82.30244 484 ft 108 kts 358°
2026-04-25 15:08 29.16718 -82.30260 487 ft 106 kts
2026-04-25 15:08 29.17457 -82.30248 484 ft 106 kts
2026-04-25 15:08 29.18164 -82.30194 484 ft 87 kts
2026-04-25 15:09 29.18752 -82.30150 503 ft 90 kts
2026-04-25 15:09 29.19407 -82.30110 512 ft 98 kts
2026-04-25 15:09 29.20281 -82.31123 492 ft 132 kts 250°
2026-04-25 15:10 29.19717 -82.31968 501 ft 137 kts 228°
2026-04-25 15:10 29.19073 -82.32792 502 ft 141 kts 227°
2026-04-25 15:10 29.17726 -82.34407 483 ft 122 kts 204°
2026-04-25 15:11 29.17051 -82.34142 504 ft 123 kts 115°
2026-04-25 15:11 29.17164 -82.33267 489 ft 106 kts 60°
2026-04-25 15:11 29.17569 -82.32603 472 ft 100 kts 50°
2026-04-25 15:12 29.18353 -82.31190 508 ft 97 kts 62°
2026-04-25 15:12 29.18661 -82.30559 492 ft 88 kts 60°
2026-04-25 15:12 29.18968 -82.29964 490 ft 87 kts 59°
2026-04-25 15:12 29.19084 -82.29769 482 ft 88 kts 49°
2026-04-25 15:13 29.19628 -82.30277 528 ft 96 kts 233°
2026-04-25 15:13 29.18637 -82.31532 536 ft 116 kts 211°
2026-04-25 15:13 29.18144 -82.31161 574 ft 107 kts 65°
2026-04-25 15:14 29.18660 -82.30533 532 ft 109 kts 65°
2026-04-25 15:14 29.18712 -82.29678 462 ft 103 kts 94°
2026-04-25 15:14 29.18999 -82.29078 538 ft 106 kts
2026-04-25 15:14 29.19828 -82.29264 635 ft 137 kts 343°
2026-04-25 15:15 29.20785 -82.29609 906 ft 153 kts 340°
2026-04-25 15:15 29.21830 -82.30022 1190 ft 165 kts 340°
2026-04-25 15:15 29.22959 -82.30435 1456 ft 175 kts 347°
2026-04-25 15:15 29.24185 -82.30576 1711 ft 183 kts 359°
2026-04-25 15:16 29.25477 -82.30529 1977 ft 189 kts
2026-04-25 15:16 29.26803 -82.30432 2231 ft 193 kts
2026-04-25 15:16 29.29526 -82.30241 2812 ft 198 kts
2026-04-25 15:17 29.32306 -82.30108 3321 ft 202 kts
2026-04-25 15:17 29.33718 -82.30048 3563 ft 203 kts
2026-04-25 15:17 29.35134 -82.29997 3841 ft 204 kts
2026-04-25 15:18 29.36562 -82.29946 3947 ft 212 kts
2026-04-25 15:18 29.39777 -82.29646 3208 ft 248 kts 11°
2026-04-25 15:18 29.41477 -82.29214 2848 ft 253 kts 13°
2026-04-25 15:19 29.43202 -82.28724 2491 ft 256 kts 13°
2026-04-25 15:19 29.43787 -82.28560 2361 ft 256 kts 13°
2026-04-25 15:19 29.46678 -82.27761 1739 ft 254 kts 13°
2026-04-25 15:19 29.48121 -82.27493 1340 ft 175 kts 351°
2026-04-25 15:20 29.48932 -82.28188 962 ft 133 kts 297°
2026-04-25 15:20 29.49352 -82.28987 712 ft 104 kts 322°
2026-04-25 15:20 29.49981 -82.29453 652 ft 116 kts 328°
2026-04-25 15:20 29.50662 -82.29926 630 ft 100 kts 332°
2026-04-25 15:21 29.51191 -82.30263 616 ft 86 kts 329°
2026-04-25 15:21 29.51726 -82.30631 617 ft 89 kts 329°
2026-04-25 15:21 29.52248 -82.30992 628 ft 87 kts 329°
2026-04-25 15:21 29.52748 -82.31358 628 ft 86 kts 328°
2026-04-25 15:22 29.53010 -82.32018 627 ft 113 kts 270°
2026-04-25 15:22 29.52968 -82.32898 746 ft 119 kts 264°
2026-04-25 15:22 29.53084 -82.33881 693 ft 134 kts 309°
2026-04-25 15:22 29.53941 -82.34158 674 ft 139 kts 21°
2026-04-25 15:23 29.54362 -82.33465 641 ft 94 kts 92°
2026-04-25 15:23 29.54099 -82.32744 619 ft 108 kts 105°
2026-04-25 15:23 29.53761 -82.31983 647 ft 109 kts 138°
2026-04-25 15:23 29.53183 -82.31406 639 ft 110 kts 137°
2026-04-25 15:24 29.52703 -82.30932 595 ft 74 kts 140°
2026-04-25 15:24 29.52389 -82.30520 587 ft 67 kts 131°
2026-04-25 15:24 29.52033 -82.30058 614 ft 95 kts 131°
2026-04-25 15:24 29.51882 -82.29845 625 ft 109 kts 127°
2026-04-25 15:25 29.51989 -82.28210 642 ft 167 kts 38°
2026-04-25 15:25 29.53166 -82.27937 653 ft 189 kts 345°
2026-04-25 15:25 29.54220 -82.28717 636 ft 153 kts 319°
2026-04-25 15:25 29.54831 -82.29520 604 ft 123 kts 297°
2026-04-25 15:26 29.55195 -82.30340 592 ft 106 kts 295°
2026-04-25 15:26 29.55493 -82.31060 581 ft 95 kts 295°
2026-04-25 15:26 29.55771 -82.31745 590 ft 98 kts 295°
2026-04-25 15:26 29.56192 -82.32367 598 ft 101 kts 318°
2026-04-25 15:27 29.56690 -82.32955 607 ft 103 kts 315°
2026-04-25 15:27 29.57151 -82.33602 611 ft 105 kts 311°
2026-04-25 15:27 29.58006 -82.34959 615 ft 105 kts 299°
2026-04-25 15:28 29.58357 -82.35662 583 ft 97 kts 306°
2026-04-25 15:28 29.58860 -82.36152 567 ft 95 kts 324°
2026-04-25 15:28 29.59389 -82.36605 591 ft 94 kts 323°
2026-04-25 15:28 29.59896 -82.37041 590 ft 88 kts 324°
2026-04-25 15:29 29.60370 -82.37448 591 ft 84 kts 324°
2026-04-25 15:29 29.60837 -82.37851 598 ft 84 kts 323°
2026-04-25 15:29 29.61304 -82.38266 606 ft 86 kts 324°
2026-04-25 15:29 29.61773 -82.38680 611 ft 86 kts 323°
2026-04-25 15:30 29.62269 -82.39119 578 ft 92 kts 325°
2026-04-25 15:30 29.62768 -82.39549 551 ft 87 kts 324°
2026-04-25 15:30 29.63236 -82.39958 525 ft 82 kts 324°
2026-04-25 15:30 29.63740 -82.40398 529 ft 109 kts 323°
2026-04-25 15:31 29.64544 -82.40756 564 ft 144 kts 11°
2026-04-25 15:31 29.65397 -82.40059 588 ft 162 kts 46°
2026-04-25 15:31 29.66144 -82.39027 564 ft 174 kts 63°
2026-04-25 15:31 29.66136 -82.37642 551 ft 184 kts 115°
2026-04-25 15:32 29.65424 -82.36406 540 ft 182 kts 125°
2026-04-25 15:32 29.64705 -82.35323 519 ft 160 kts 128°
2026-04-25 15:32 29.63799 -82.34789 507 ft 147 kts 186°
2026-04-25 15:33 29.62625 -82.36338 493 ft 116 kts 260°
2026-04-25 15:33 29.62469 -82.37113 470 ft 85 kts 249°
2026-04-25 15:33 29.62195 -82.37710 467 ft 87 kts 238°
2026-04-25 15:33 29.61884 -82.38304 505 ft 86 kts 241°
2026-04-25 15:34 29.61614 -82.38871 507 ft 75 kts 242°
2026-04-25 15:34 29.61347 -82.39349 494 ft 75 kts 236°
2026-04-25 15:34 29.61031 -82.39868 510 ft 82 kts 237°
2026-04-25 15:34 29.60922 -82.40054 507 ft 84 kts 239°
2026-04-25 15:35 29.60119 -82.41434 511 ft 76 kts 236°
2026-04-25 15:35 29.59826 -82.41944 519 ft 77 kts 239°
2026-04-25 15:35 29.59536 -82.42470 530 ft 81 kts 239°
2026-04-25 15:36 29.58237 -82.42816 520 ft 115 kts 130°
2026-04-25 15:36 29.58271 -82.42086 510 ft 104 kts 34°
2026-04-25 15:36 29.58742 -82.41945 529 ft 110 kts
2026-04-25 15:37 29.59423 -82.41957 529 ft 78 kts 354°
2026-04-25 15:37 29.59925 -82.42095 520 ft 81 kts 338°
2026-04-25 15:37 29.60520 -82.42289 524 ft 93 kts 351°
2026-04-25 15:37 29.61159 -82.42297 523 ft 87 kts
2026-04-25 15:38 29.61765 -82.42262 512 ft 100 kts
2026-04-25 15:38 29.62585 -82.42226 641 ft 129 kts
2026-04-25 15:38 29.63536 -82.42159 911 ft 144 kts
2026-04-25 15:38 29.64571 -82.41999 1210 ft 158 kts 20°
2026-04-25 15:39 29.65423 -82.41146 1475 ft 173 kts 62°
2026-04-25 15:39 29.65551 -82.39767 1737 ft 181 kts 106°
2026-04-25 15:39 29.64794 -82.38647 1976 ft 186 kts 150°
2026-04-25 15:39 29.63533 -82.38252 2229 ft 192 kts 174°
2026-04-25 15:40 29.62185 -82.38169 2519 ft 196 kts 176°
2026-04-25 15:40 29.61267 -82.38056 2699 ft 197 kts 171°
2026-04-25 15:40 29.59511 -82.37484 3051 ft 200 kts 158°
2026-04-25 15:40 29.58258 -82.36775 3340 ft 201 kts 150°
2026-04-25 15:41 29.57078 -82.35903 3584 ft 202 kts 145°
2026-04-25 15:41 29.55942 -82.34930 3829 ft 204 kts 142°
2026-04-25 15:41 29.54833 -82.33893 4085 ft 206 kts 140°
2026-04-25 15:41 29.53741 -82.32822 4326 ft 207 kts 140°
2026-04-25 15:42 29.52665 -82.31741 4570 ft 208 kts 139°
2026-04-25 15:42 29.51564 -82.30627 4817 ft 209 kts 139°
2026-04-25 15:42 29.50491 -82.29535 5061 ft 209 kts 139°
2026-04-25 15:42 29.49403 -82.28426 5305 ft 210 kts 139°
2026-04-25 15:43 29.48307 -82.27309 5560 ft 210 kts 139°
2026-04-25 15:43 29.47211 -82.26194 5805 ft 210 kts 139°
2026-04-25 15:43 29.46113 -82.25081 6046 ft 211 kts 139°
2026-04-25 15:43 29.45013 -82.23964 6310 ft 211 kts 139°
2026-04-25 15:44 29.43914 -82.22845 6554 ft 212 kts 139°
2026-04-25 15:44 29.42808 -82.21725 6791 ft 212 kts 139°
2026-04-25 15:44 29.41702 -82.20603 7037 ft 213 kts 139°
2026-04-25 15:44 29.40590 -82.19476 7307 ft 214 kts 139°
2026-04-25 15:45 29.39474 -82.18345 7556 ft 215 kts 139°
2026-04-25 15:45 29.38357 -82.17210 7817 ft 215 kts 139°
2026-04-25 15:45 29.37238 -82.16074 8115 ft 212 kts 139°
2026-04-25 15:45 29.36510 -82.15334 8376 ft 210 kts 139°
2026-04-25 15:46 29.35065 -82.13866 8892 ft 205 kts 139°
2026-04-25 15:46 29.34016 -82.12802 9285 ft 203 kts 139°
2026-04-25 15:46 29.32963 -82.11733 9674 ft 202 kts 139°
2026-04-25 15:46 29.31915 -82.10669 10060 ft 201 kts 139°
2026-04-25 15:47 29.30869 -82.09611 10437 ft 201 kts 139°
2026-04-25 15:47 29.29824 -82.08555 10820 ft 200 kts 139°
2026-04-25 15:47 29.28779 -82.07498 11213 ft 200 kts 139°
2026-04-25 15:47 29.27733 -82.06439 11578 ft 200 kts 139°
2026-04-25 15:48 29.26689 -82.05381 11967 ft 201 kts 139°
2026-04-25 15:48 29.25637 -82.04316 12348 ft 201 kts 139°
2026-04-25 15:48 29.24587 -82.03254 12716 ft 201 kts 139°
2026-04-25 15:48 29.23536 -82.02193 13088 ft 201 kts 139°
2026-04-25 15:49 29.22484 -82.01132 13436 ft 203 kts 139°
2026-04-25 15:49 29.21391 -82.00031 13474 ft 221 kts 139°
2026-04-25 15:49 29.20193 -81.98838 13496 ft 236 kts 140°
2026-04-25 15:49 29.18920 -81.97568 13504 ft 248 kts 139°
2026-04-25 15:50 29.17591 -81.96236 13511 ft 258 kts 139°
2026-04-25 15:50 29.16228 -81.94863 13507 ft 265 kts 139°
2026-04-25 15:50 29.14830 -81.93457 13503 ft 269 kts 139°
2026-04-25 15:50 29.13409 -81.92026 13508 ft 273 kts 139°
2026-04-25 15:51 29.11982 -81.90586 13503 ft 275 kts 139°
2026-04-25 15:51 29.11032 -81.89629 13501 ft 276 kts 139°
2026-04-25 15:51 29.09094 -81.87682 13496 ft 277 kts 139°
2026-04-25 15:51 29.07662 -81.86248 13498 ft 277 kts 139°
2026-04-25 15:52 29.06214 -81.84791 13503 ft 278 kts 139°
2026-04-25 15:52 29.04767 -81.83336 13505 ft 277 kts 139°
2026-04-25 15:52 29.03309 -81.81878 13505 ft 278 kts 139°
2026-04-25 15:52 29.01859 -81.80421 13504 ft 278 kts 139°
2026-04-25 15:53 29.00404 -81.78959 13502 ft 277 kts 139°
2026-04-25 15:53 28.98955 -81.77506 13508 ft 277 kts 139°
2026-04-25 15:53 28.97499 -81.76063 13500 ft 277 kts 143°
2026-04-25 15:53 28.95752 -81.75239 13321 ft 278 kts 177°
2026-04-25 15:54 28.93777 -81.75203 12809 ft 290 kts 184°
2026-04-25 15:54 28.91701 -81.75251 12066 ft 305 kts 184°
2026-04-25 15:54 28.89578 -81.75316 11345 ft 312 kts 184°
2026-04-25 15:54 28.87395 -81.75393 10610 ft 314 kts 184°
2026-04-25 15:55 28.85206 -81.75470 9871 ft 316 kts 183°
2026-04-25 15:55 28.83005 -81.75548 9142 ft 315 kts 183°
2026-04-25 15:55 28.80838 -81.75680 8401 ft 307 kts 184°
2026-04-25 15:55 28.78760 -81.75849 7668 ft 289 kts 185°
2026-04-25 15:56 28.76781 -81.76006 6933 ft 282 kts 184°
2026-04-25 15:56 28.74842 -81.76148 6202 ft 276 kts 184°
2026-04-25 15:56 28.73106 -81.76287 5450 ft 215 kts 184°
2026-04-25 15:56 28.71771 -81.75793 4930 ft 216 kts 137°
2026-04-25 15:57 28.71140 -81.74284 4712 ft 213 kts 95°
2026-04-25 15:57 28.71120 -81.72627 4614 ft 206 kts 89°
2026-04-25 15:57 28.71162 -81.71022 4567 ft 199 kts 88°
2026-04-25 15:57 28.71218 -81.69469 4531 ft 201 kts 92°
2026-04-25 15:58 28.71033 -81.67882 4516 ft 203 kts 101°
2026-04-25 15:58 28.70698 -81.66308 4511 ft 205 kts 109°
2026-04-25 15:58 28.70197 -81.64755 4511 ft 212 kts 112°
2026-04-25 15:58 28.69638 -81.63180 4507 ft 216 kts 113°
2026-04-25 15:59 28.69053 -81.61586 4507 ft 219 kts 113°
2026-04-25 15:59 28.68456 -81.59984 4516 ft 221 kts 113°
2026-04-25 15:59 28.67850 -81.58368 4504 ft 222 kts 114°
2026-04-25 15:59 28.67243 -81.56749 4503 ft 221 kts 113°
2026-04-25 16:00 28.66685 -81.55146 4511 ft 221 kts 104°
2026-04-25 16:00 28.66625 -81.54560 4512 ft 221 kts 90°
2026-04-25 16:00 28.66801 -81.51663 4514 ft 221 kts 88°
2026-04-25 16:00 28.66860 -81.49908 4510 ft 222 kts 88°
2026-04-25 16:01 28.66910 -81.48152 4508 ft 221 kts 88°
2026-04-25 16:01 28.66956 -81.46404 4504 ft 221 kts 88°
2026-04-25 16:01 28.67003 -81.44650 4513 ft 222 kts 88°
2026-04-25 16:01 28.67046 -81.42885 4312 ft 222 kts 89°
2026-04-25 16:02 28.67086 -81.41146 3940 ft 217 kts 89°
2026-04-25 16:02 28.67131 -81.39440 3579 ft 214 kts 88°
2026-04-25 16:02 28.67182 -81.37751 3221 ft 212 kts 89°
2026-04-25 16:02 28.67238 -81.36080 2862 ft 210 kts 89°
2026-04-25 16:03 28.67302 -81.34415 2506 ft 210 kts 88°
2026-04-25 16:03 28.67373 -81.32766 2248 ft 205 kts 89°
2026-04-25 16:03 28.67447 -81.31178 2140 ft 197 kts 88°
2026-04-25 16:03 28.67519 -81.29637 2092 ft 194 kts 88°
2026-04-25 16:04 28.67585 -81.28116 2043 ft 191 kts 88°
2026-04-25 16:04 28.67645 -81.26627 2040 ft 190 kts 88°
2026-04-25 16:04 28.67707 -81.25130 2043 ft 189 kts 88°
2026-04-25 16:04 28.67766 -81.23640 2039 ft 188 kts 88°
2026-04-25 16:05 28.67672 -81.22166 2014 ft 189 kts 112°
2026-04-25 16:05 28.66786 -81.21097 2031 ft 191 kts 154°
2026-04-25 16:05 28.64264 -81.20063 2042 ft 193 kts 158°
2026-04-25 16:06 28.63014 -81.19527 2034 ft 191 kts 174°
2026-04-25 16:06 28.61770 -81.19933 2034 ft 189 kts 213°
2026-04-25 16:06 28.60733 -81.20852 2043 ft 189 kts 220°
2026-04-25 16:06 28.59790 -81.21907 2051 ft 190 kts 227°
2026-04-25 16:07 28.58942 -81.23077 1888 ft 195 kts 232°
2026-04-25 16:07 28.58680 -81.23482 1786 ft 196 kts 233°
2026-04-25 16:07 28.57465 -81.25615 1360 ft 165 kts 239°
2026-04-25 16:07 28.57030 -81.26591 1178 ft 123 kts 244°
2026-04-25 16:08 28.56719 -81.27436 1023 ft 110 kts 245°
2026-04-25 16:08 28.56443 -81.28209 881 ft 102 kts 245°
2026-04-25 16:08 28.56173 -81.28941 754 ft 101 kts 244°
2026-04-25 16:08 28.55885 -81.29698 619 ft 106 kts 245°
2026-04-25 16:09 28.55623 -81.30437 501 ft 94 kts 244°
2026-04-25 16:09 28.55368 -81.31099 363 ft 89 kts 244°
2026-04-25 16:09 28.55118 -81.31734 224 ft 88 kts 242°
2026-04-25 16:09 28.54883 -81.32347 123 ft 78 kts 244°
2026-04-25 16:10 28.54737 -81.32763 115 ft 32 kts 277°
2026-04-25 16:10 28.54792 -81.32883 114 ft 9 kts 301°
2026-04-25 16:10 28.54785 -81.32989 113 ft 26 kts 248°
2026-04-25 16:10 28.54725 -81.33169 115 ft 20 kts 258°
2026-04-25 16:11 28.54710 -81.33325 113 ft 21 kts 262°
2026-04-25 16:11 28.54694 -81.33501 112 ft 24 kts 264°
2026-04-25 16:11 28.54711 -81.33585 112 ft 8 kts 10°
2026-04-25 16:11 28.54789 -81.33542 114 ft 12 kts
2026-04-25 16:12 28.54846 -81.33592 113 ft 9 kts
2026-04-25 16:12 28.54861 -81.33584 114 ft 0 kts 37°